Home   Weather   City of Louisville   Past weeks
Flag for USA

Past Weather in City of Louisville, Georgia, USA — Yesterday and Last 2 Weeks

Now
90 °F

Sunny.


Feels Like: 88 °F
Forecast: 93 / 66 °F
Wind: 7 mph from North

Location: Daniel Field

Current Time: May 21, 2019 at 1:29:19 pm

Latest Report: May 21, 2019 at 12:53 pm


Visibility: 10 mi

Pressure: 29.95 "Hg

Humidity: 29%

Dew Point: 54 °F

Location of City of LouisvilleLocation

Past Weather in City of Louisville — Graph

°F

City of Louisville Temperature Yesterday

Maximum temperature yesterday: 91 °F (at 4:53 pm)
Minimum temperature yesterday: 72 °F (at 3:53 am)
Average temperature yesterday: 79 °F

High & Low Weather Summary for the Past Weeks

 TemperatureHumidityPressure
High92 °F (May 18, 5:53 pm)93% (May 11, 5:34 am)30.17 "Hg (May 11, 5:34 am)
Low56 °F (May 15, 4:53 am)22% (May 19, 2:53 pm)29.74 "Hg (May 12, 7:53 pm)
Average75 °F64%29.99 "Hg
* Reported May 6 4:53 pm — May 21 11:53 am, City of Louisville. Weather by CustomWeather, © 2019

Note: Actual official high and low records may vary slightly from our data, if they occured in-between our weather recording intervals... More about our weather records

Advertising

City of Louisville Weather History for the Previous 24 Hours

Scroll right to see more
 ConditionsComfort  
Time TempWeatherWind HumidityBarometerVisibility
11:53 am
Tue, May 21
89 °FSunny.6 mph34%29.96 "Hg10 mi
10:53 am85 °FSunny.5 mph43%29.97 "Hg10 mi
9:53 am81 °FSunny.3 mph53%29.97 "Hg10 mi
8:53 am76 °FSunny.No wind62%29.96 "Hg10 mi
7:53 am72 °FSunny.3 mph68%29.96 "Hg10 mi
6:53 am70 °FSunny.No wind76%29.95 "Hg8 mi
5:53 am70 °FClear.No wind79%29.93 "Hg8 mi
4:53 am70 °FClear.3 mph84%29.92 "Hg8 mi
3:53 am75 °FClear.5 mph55%29.91 "Hg10 mi
2:53 am77 °FClear.5 mph52%29.91 "Hg10 mi
1:53 am77 °FClear.No wind56%29.92 "Hg10 mi
12:53 am78 °FClear.No wind56%29.93 "Hg10 mi
11:53 pm
Mon, May 20
80 °FClear.3 mph52%29.93 "Hg10 mi
10:53 pm82 °FClear.5 mph51%29.93 "Hg10 mi
9:53 pm83 °FClear.5 mph51%29.94 "Hg10 mi
8:53 pm84 °FPartly cloudy.No wind53%29.93 "Hg10 mi
7:53 pm86 °FSunny.No wind48%29.92 "Hg10 mi
6:53 pm88 °FSunny.5 mph43%29.92 "Hg10 mi
5:53 pm89 °FPassing clouds.6 mph42%29.92 "Hg10 mi
4:53 pm91 °FPartly sunny.8 mph37%29.92 "Hg10 mi
3:53 pm90 °FScattered clouds.12 mph37%29.94 "Hg10 mi
2:53 pm90 °FScattered clouds.8 mph37%29.96 "Hg10 mi
1:53 pm89 °FSunny.7 mph39%29.98 "Hg10 mi
Weather by CustomWeather, © 2019

See weather overview